�N����,����,����,����,����,�C��,���x,�~����,�S�V����,�ő�u�ԕ���,,,
,,,,,,,,,����,����,����,�N��
yyyy/mm/dd,hh:mm:ss,(16),16����,m/s,��,%,mm,KW/�u,(16),16����,m/s,Time
2014/3/1,1:00:00,14,�k��,1.9,-3.5,56.3,0,0,12,��,5.6,8
2014/3/1,2:00:00,8,��,2.4,-6.6,67,0,0,11,���쐼,4.9,35
2014/3/1,3:00:00,10,�쐼,1.6,-8.3,73,0,0,10,�쐼,4.5,30
2014/3/1,4:00:00,12,��,1.7,-9.7,80.1,0,0,12,��,2.3,55
2014/3/1,5:00:00,12,��,1.8,-9.1,78.5,0,0,13,���k��,2.8,15
2014/3/1,6:00:00,12,��,1.1,-11.1,84.3,0,0.01,12,��,2.8,27
2014/3/1,7:00:00,11,���쐼,1.5,-10.4,84.6,0,0.04,2,�k��,2.6,11
2014/3/1,8:00:00,11,���쐼,2.4,-5.9,68.1,0,0.2,7,��쓌,3.5,47
2014/3/1,9:00:00,12,��,1,-2.8,62.4,0,0.42,6,�쓌,2.6,1
2014/3/1,10:00:00,8,��,1,-0.8,48.1,0,0.57,10,�쐼,2.8,23
2014/3/1,11:00:00,4,��,1.6,0.7,48.3,0,0.66,5,���쓌,3.1,29
2014/3/1,12:00:00,5,���쓌,2.2,-0.3,48.6,0,0.74,5,���쓌,3.8,37
2014/3/1,13:00:00,6,�쓌,2.4,0.9,56.1,0,0.74,6,�쓌,3.6,52
2014/3/1,14:00:00,4,��,2.5,1.6,60.6,0,0.65,4,��,3.3,56
2014/3/1,15:00:00,4,��,1.7,1.6,60.3,0,0.51,4,��,3.6,44
2014/3/1,16:00:00,7,��쓌,1.6,-0.2,63.4,0,0.31,7,��쓌,2.8,28
2014/3/1,17:00:00,8,��,1.2,-1.7,71.7,0,0.11,7,��쓌,2.5,1
2014/3/1,18:00:00,1,�k�k��,1.2,-3.4,83.4,0,0.01,1,�k�k��,2.5,54
2014/3/1,19:00:00,11,���쐼,0.8,-7,86.5,0,0,10,�쐼,25.8,58
2014/3/1,20:00:00,15,�k�k��,0.4,-7.6,78.3,0,0,9,��쐼,4.3,10
2014/3/1,21:00:00,12,��,2,-8.6,93.8,0,0,13,���k��,2.6,51
2014/3/1,22:00:00,12,��,1.6,-11.4,90.6,0,0,12,��,2.6,50
2014/3/1,23:00:00,12,��,1.4,-10,93.8,0,0,13,���k��,2.3,17
2014/3/1,0:00:00,12,��,1.5,-12,89,0,0,12,��,3,46
2014/3/2,1:00:00,12,��,1.3,-9.1,84.4,0,0,8,��,3.3,3
2014/3/2,2:00:00,12,��,2.4,-11.5,89,0,0,12,��,3,58
2014/3/2,3:00:00,2,�É�,0.1,-11.5,81.5,0,0,12,��,3.9,5
2014/3/2,4:00:00,13,���k��,0.6,-8.4,80.8,0,0,8,��,2.4,14
2014/3/2,5:00:00,11,���쐼,0.7,-8.3,76.8,0,0,5,���쓌,2.8,13
2014/3/2,6:00:00,11,���쐼,0.3,-9.8,72.2,0,0.01,10,�쐼,2.9,31
2014/3/2,7:00:00,11,���쐼,1,-13.3,88,0,0.04,10,�쐼,1.5,7
2014/3/2,8:00:00,12,��,1.4,-8.5,73.3,0,0.18,12,��,2.5,28
2014/3/2,9:00:00,10,�쐼,0.3,-3.8,59.8,0,0.45,11,���쐼,1.9,29
2014/3/2,10:00:00,6,�쓌,1.1,-1.9,51.9,0,0.65,6,�쓌,2.5,55
2014/3/2,11:00:00,6,�쓌,1.9,-2.3,49.1,0,0.74,6,�쓌,3.5,28
2014/3/2,12:00:00,5,���쓌,2,-1.4,53.2,0,0.78,6,�쓌,4,11
2014/3/2,13:00:00,6,�쓌,2.6,-1.2,54,0,0.76,5,���쓌,3.9,10
2014/3/2,14:00:00,6,�쓌,2,-1.3,53.7,0,0.68,6,�쓌,4.7,44
2014/3/2,15:00:00,8,��,2.5,-1.7,60.3,0,0.53,7,��쓌,4.7,44
2014/3/2,16:00:00,8,��,2.8,-2.1,65.8,0,0.34,7,��쓌,4.5,6
2014/3/2,17:00:00,9,��쐼,1.7,-2.7,69.4,0,0.12,8,��,5.2,8
2014/3/2,18:00:00,12,��,0.8,-7.1,80.7,0,0.01,10,�쐼,2,1
2014/3/2,19:00:00,12,��,1.8,-8.5,88.7,0,0,12,��,2.4,52
2014/3/2,20:00:00,14,�k��,1.6,-10,86.4,0,0,12,��,2.8,53
2014/3/2,21:00:00,12,��,2,-11.4,92.5,0,0,12,��,3.3,59
2014/3/2,22:00:00,11,���쐼,0.8,-12.9,90.6,0,0,12,��,2.7,0
2014/3/2,23:00:00,12,��,1,-12,89.5,0,0,12,��,3.9,51
2014/3/2,0:00:00,12,��,2.3,-8.4,76,0,0,12,��,3.4,56
2014/3/3,1:00:00,12,��,3.1,-6.8,61.9,0,0,12,��,6.2,26
2014/3/3,2:00:00,11,���쐼,2.9,-8.1,66.4,0,0,12,��,5.9,17
2014/3/3,3:00:00,11,���쐼,3.2,-8.3,65.1,0,0,3,���k��,5.5,32
2014/3/3,4:00:00,9,�É�,0.2,-10.9,69.4,0,0,14,�k��,4.6,8
2014/3/3,5:00:00,13,���k��,0.6,-13,73.4,0,0,11,���쐼,3.6,35
2014/3/3,6:00:00,12,��,1.8,-15.3,83.3,0,0.01,12,��,3.6,6
2014/3/3,7:00:00,10,�쐼,1.6,-13.6,80.2,0,0.08,12,��,3.5,44
2014/3/3,8:00:00,11,���쐼,1.9,-10.6,75.5,0,0.27,12,��,3.2,23
2014/3/3,9:00:00,3,���k��,0.5,-3.1,56,0,0.48,11,���쐼,2,18
2014/3/3,10:00:00,5,���쓌,2.4,-2.3,63.5,0,0.64,5,���쓌,3.5,23
2014/3/3,11:00:00,6,�쓌,2.3,-0.6,52.7,0,0.75,6,�쓌,4.4,30
2014/3/3,12:00:00,12,��,6.9,0.5,42.1,0,0.8,12,��,10.9,50
2014/3/3,13:00:00,13,���k��,2.7,1.1,39.1,0,0.93,11,���쐼,11.8,12
2014/3/3,14:00:00,11,���쐼,4.9,0.8,46.4,0,0.87,10,�쐼,10.4,29
2014/3/3,15:00:00,12,��,5.6,0.4,51.9,0,0.37,12,��,8.4,54
2014/3/3,16:00:00,13,���k��,3.6,-1,56.2,0,0.31,11,���쐼,8.4,15
2014/3/3,17:00:00,12,��,3,-1.2,55.8,0,0.09,15,�k�k��,5,12
2014/3/3,18:00:00,12,��,3.2,-2.8,55.9,0,0,13,���k��,6.1,58
2014/3/3,19:00:00,13,���k��,3,-4.2,51.1,0,0,8,��,5.6,21
2014/3/3,20:00:00,11,���쐼,3.3,-5.2,49.2,0,0,10,�쐼,5.5,54
2014/3/3,21:00:00,12,��,1.4,-7.3,61.6,0,0,11,���쐼,4.4,1
2014/3/3,22:00:00,12,��,1.3,-11.5,72.6,0,0,13,���k��,2.4,13
2014/3/3,23:00:00,12,��,1.9,-13.2,83.7,0,0,11,���쐼,2.5,55
2014/3/3,0:00:00,12,��,1.9,-13.2,84.4,0,0,11,���쐼,4,32
2014/3/4,1:00:00,11,���쐼,2.2,-14.9,84.2,0,0,12,��,3.5,56
2014/3/4,2:00:00,11,���쐼,2.8,-15.4,84.9,0,0,12,��,3.7,57
2014/3/4,3:00:00,12,��,2.2,-15.1,84.7,0,0,12,��,4.5,46
2014/3/4,4:00:00,11,���쐼,2.8,-15.9,80.2,0,0,12,��,4.7,3
2014/3/4,5:00:00,11,���쐼,2.4,-16.1,82.8,0,0,6,�쓌,3.8,14
2014/3/4,6:00:00,11,���쐼,2.4,-16.5,83.9,0,0,12,��,4.8,5
2014/3/4,7:00:00,9,��쐼,1.5,-14.3,81.2,0,0.08,11,���쐼,16.3,34
2014/3/4,8:00:00,12,��,1.5,-10.6,70.5,0,0.28,12,��,3.2,46
2014/3/4,9:00:00,7,��쓌,0.6,-2,48.6,0,0.5,12,��,2.5,11
2014/3/4,10:00:00,5,���쓌,0.7,-0.5,40.2,0,0.65,3,���k��,2.1,30
2014/3/4,11:00:00,7,��쓌,0.8,0.1,32.5,0,0.75,12,��,2.9,25
2014/3/4,12:00:00,15,�k�k��,2.3,-0.6,35.1,0,0.79,14,�k��,6.1,36
2014/3/4,13:00:00,14,�k��,2.5,-0.3,31.6,0,0.75,15,�k�k��,6.3,38
2014/3/4,14:00:00,15,�k�k��,1.7,0.6,31.7,0,0.65,16,�k,5,39
2014/3/4,15:00:00,9,��쐼,1.7,0.6,42.1,0,0.5,1,�k�k��,5.1,12
2014/3/4,16:00:00,8,��,1.3,-1.1,44.8,0,0.28,1,�k�k��,5.9,9
2014/3/4,17:00:00,10,�쐼,1.4,-2,49.8,0,0.07,9,��쐼,2.7,44
2014/3/4,18:00:00,10,�쐼,0.8,-4.3,62.1,0,0.01,10,�쐼,2.3,24
2014/3/4,19:00:00,16,�k,0.7,-6.2,71.9,0,0,1,�k�k��,1.7,27
2014/3/4,20:00:00,12,��,0.7,-7.6,81.3,0,0,16,�k,2.6,40
2014/3/4,21:00:00,12,��,0.7,-6.1,81.4,0,0,12,��,2.5,3
2014/3/4,22:00:00,13,���k��,0.3,-5.3,78.6,0,0,16,�k,2.8,56
2014/3/4,23:00:00,15,�k�k��,0.3,-5.2,80.8,0,0,12,��,2.8,22
2014/3/4,0:00:00,12,��,0.4,-4.1,79.1,0,0,7,��쓌,7.3,31
2014/3/5,1:00:00,7,��쓌,3.7,-1.8,75.3,0,0,7,��쓌,7.4,48
2014/3/5,2:00:00,7,��쓌,2.1,-2.2,88.5,0,0,7,��쓌,6.6,0
2014/3/5,3:00:00,14,�k��,1.5,-3,92.7,0,0,9,��쐼,2.5,58
2014/3/5,4:00:00,12,��,3.4,-4.4,92.4,0,0,11,���쐼,5.7,59
2014/3/5,5:00:00,11,���쐼,3,-4.5,91.7,0,0,6,�쓌,6,27
2014/3/5,6:00:00,13,���k��,1.8,-4.5,90.7,0,0,15,�k�k��,5.2,4
2014/3/5,7:00:00,14,�k��,2.4,-4.2,87.5,0,0.03,13,���k��,4.8,37
2014/3/5,8:00:00,14,�k��,1.9,-3.8,85.9,0,0.09,16,�k,5.2,12
2014/3/5,9:00:00,13,���k��,0.5,-2.5,82.8,0,0.23,14,�k��,3.1,3
2014/3/5,10:00:00,16,�É�,0.2,-0.4,81.3,0,0.34,16,�k,1.9,8
2014/3/5,11:00:00,2,�k��,0.8,1,79.3,0,0.5,1,�k�k��,1.9,56
2014/3/5,12:00:00,5,���쓌,2.4,0.8,76.9,0,0.68,4,��,3.3,40
2014/3/5,13:00:00,4,��,3.1,0.9,79.3,0,0.71,4,��,4.4,54
2014/3/5,14:00:00,6,�쓌,2.7,-0.7,88.8,0,0.39,5,���쓌,6.2,24
2014/3/5,15:00:00,4,��,1.7,0.3,92,0,0.19,6,�쓌,4.5,1
2014/3/5,16:00:00,3,���k��,1,-0.1,94.5,0,0.11,2,�k��,2,3
2014/3/5,17:00:00,3,���k��,2.7,-0.8,96.2,0,0.04,2,�k��,3.6,48
2014/3/5,18:00:00,1,�k�k��,1.9,-0.7,97.5,0,0.01,2,�k��,3.7,13
2014/3/5,19:00:00,16,�k,0.5,-0.5,98.5,0,0,1,�k�k��,2.7,3
2014/3/5,20:00:00,13,���k��,2,-1.3,98.5,0,0,12,��,3.6,58
2014/3/5,21:00:00,13,���k��,2.3,-1.2,98.4,0,0,14,�k��,4.1,57
2014/3/5,22:00:00,14,�k��,2.6,-1.4,95.7,0,0,11,���쐼,5.2,29
2014/3/5,23:00:00,14,�k��,2.6,-2.1,94.1,0,0,13,���k��,5.3,38
2014/3/5,0:00:00,15,�k�k��,3.6,-2.4,90,0.5,0,15,�k�k��,8.3,56
2014/3/6,1:00:00,14,�k��,3.9,-2.3,87.8,0,0,16,�k,10.3,15
2014/3/6,2:00:00,13,���k��,4.2,-2,85.6,0,0,15,�k�k��,7.4,55
2014/3/6,3:00:00,13,���k��,3.7,-2.6,90.1,0,0,11,���쐼,7.1,21
2014/3/6,4:00:00,13,���k��,3.3,-3.3,90.9,0,0,13,���k��,6.3,58
2014/3/6,5:00:00,13,���k��,3.2,-4.1,90.3,0,0,8,��,6.4,11
2014/3/6,6:00:00,14,�k��,3,-4.3,85,0,0,8,��,5.7,15
2014/3/6,7:00:00,13,���k��,4,-3.6,75.2,0,0.03,14,�k��,8.1,7
2014/3/6,8:00:00,14,�k��,5.1,-2.3,65.1,0,0.2,15,�k�k��,9.5,53
2014/3/6,9:00:00,14,�k��,6.9,-2.1,54.9,0,0.32,13,���k��,14.3,34
2014/3/6,10:00:00,14,�k��,6.1,-1.8,47.3,0,0.48,15,�k�k��,12.5,36
2014/3/6,11:00:00,14,�k��,6.5,-2.2,45.4,0,0.59,15,�k�k��,14.9,48
2014/3/6,12:00:00,14,�k��,8.1,-2.3,46.3,0,0.82,9,��쐼,17,20
2014/3/6,13:00:00,14,�k��,6.7,-2.1,43.3,0,0.79,12,��,14.6,14
2014/3/6,14:00:00,14,�k��,6.1,-1.8,34.5,0,0.71,16,�k,12.8,59
2014/3/6,15:00:00,14,�k��,5.7,-2.4,41,0,0.57,11,���쐼,13.9,2
2014/3/6,16:00:00,14,�k��,6.1,-3,42.5,0,0.37,7,��쓌,12.5,0
2014/3/6,17:00:00,14,�k��,4.7,-4,44.1,0,0.15,13,���k��,10.3,31
2014/3/6,18:00:00,13,���k��,3.4,-4.7,43.2,0,0.01,11,���쐼,8.3,20
2014/3/6,19:00:00,14,�k��,3.4,-6,53.9,0,0,16,�k,7.4,48
2014/3/6,20:00:00,14,�k��,1.6,-6.5,57.5,0,0,12,��,4.7,21
2014/3/6,21:00:00,12,��,1.7,-8.7,69.7,0,0,11,���쐼,4,12
2014/3/6,22:00:00,11,���쐼,2,-10.4,77,0,0,10,�쐼,2.9,53
2014/3/6,23:00:00,11,���쐼,1.4,-12.7,82.8,0,0,10,�쐼,2.8,34
2014/3/6,0:00:00,13,���k��,2.2,-12.9,82.7,0,0,12,��,4.8,55
2014/3/7,1:00:00,12,��,2.1,-16,83.7,0,0,10,�쐼,4.2,2
2014/3/7,2:00:00,11,���쐼,2.1,-15.9,88,0,0,14,�k��,4.3,30
2014/3/7,3:00:00,11,���쐼,2.3,-18.5,88.2,0,0,10,�쐼,3.4,55
2014/3/7,4:00:00,11,���쐼,1.9,-16.7,88.7,0,0,10,�쐼,3.2,10
2014/3/7,5:00:00,12,��,1.1,-16.6,89.9,0,0,11,���쐼,3.8,11
2014/3/7,6:00:00,10,�쐼,2.2,-15.9,84.9,0,0,8,��,3.8,58
2014/3/7,7:00:00,10,�쐼,3.8,-8.9,60.2,0,0.09,9,��쐼,6.6,57
2014/3/7,8:00:00,11,���쐼,6.6,-4.9,41.7,0,0.31,10,�쐼,12.3,43
2014/3/7,9:00:00,11,���쐼,5.2,-4.1,39.8,0,0.53,12,��,9.6,40
2014/3/7,10:00:00,11,���쐼,6.8,-4,45.3,0,0.69,11,���쐼,13.2,31
2014/3/7,11:00:00,11,���쐼,6.6,-3.3,45,0,0.8,12,��,14.9,38
2014/3/7,12:00:00,10,�쐼,6.1,-2.8,41.4,0,0.81,11,���쐼,13.2,7
2014/3/7,13:00:00,10,�쐼,7.4,-3.3,46,0,0.82,10,�쐼,15,27
2014/3/7,14:00:00,9,��쐼,8.5,-3.1,45.1,0,0.72,9,��쐼,14.1,38
2014/3/7,15:00:00,10,�쐼,6.3,-3.5,49.6,0,0.58,10,�쐼,13.3,18
2014/3/7,16:00:00,9,��쐼,4.9,-3.4,44.3,0,0.41,9,��쐼,9,8
2014/3/7,17:00:00,9,��쐼,4.4,-4.8,50.7,0,0.15,7,��쓌,10.7,41
2014/3/7,18:00:00,11,���쐼,4.5,-5.6,55.4,0,0,11,���쐼,8.6,27
2014/3/7,19:00:00,11,���쐼,4.6,-5.9,58.4,0,0,10,�쐼,10.7,15
2014/3/7,20:00:00,11,���쐼,3.5,-6.1,53.8,0,0,10,�쐼,9.2,9
2014/3/7,21:00:00,11,���쐼,2.9,-7.2,63.8,0,0,11,���쐼,7.6,48
2014/3/7,22:00:00,10,�쐼,3.3,-7.4,59.7,0,0,10,�쐼,6,59
2014/3/7,23:00:00,11,���쐼,6.3,-6,53.6,0,0,11,���쐼,10.5,33
2014/3/7,0:00:00,11,���쐼,5.4,-6.7,56.3,0,0,11,���쐼,10,15
2014/3/8,1:00:00,11,���쐼,4.8,-6.3,57.7,0,0,10,�쐼,11,3
2014/3/8,2:00:00,11,���쐼,4.9,-6.2,58.7,0,0,10,�쐼,8.4,38
2014/3/8,3:00:00,10,�쐼,3.8,-7.2,66.7,0,0,10,�쐼,6.8,48
2014/3/8,4:00:00,10,�쐼,3.7,-7.6,70.3,0,0,11,���쐼,8.8,44
2014/3/8,5:00:00,10,�쐼,2.9,-8.3,70.2,0,0,10,�쐼,6.8,23
2014/3/8,6:00:00,9,��쐼,1.8,-8.6,69,0,0.01,9,��쐼,6.4,11
2014/3/8,7:00:00,10,�쐼,2.8,-6.3,60.8,0,0.1,9,��쐼,6.3,35
2014/3/8,8:00:00,9,��쐼,1.9,-4.8,52,0,0.3,11,���쐼,4.7,27
2014/3/8,9:00:00,11,���쐼,5.6,-3.7,48.6,0,0.51,11,���쐼,10.4,47
2014/3/8,10:00:00,10,�쐼,5.9,-2.9,42.4,0,0.68,11,���쐼,10.4,41
2014/3/8,11:00:00,10,�쐼,6.5,-2.1,42.2,0,0.77,11,���쐼,10.8,52
2014/3/8,12:00:00,10,�쐼,7.7,-2.2,45.3,0,0.82,11,���쐼,12,39
2014/3/8,13:00:00,10,�쐼,5.1,-1.8,47.4,0,0.73,10,�쐼,11,46
2014/3/8,14:00:00,10,�쐼,6.4,-2,53.7,0,0.72,11,���쐼,11.5,24
2014/3/8,15:00:00,9,��쐼,6.3,-2.1,49.2,0,0.57,12,��,11.8,24
2014/3/8,16:00:00,10,�쐼,4.9,-2.5,49.6,0,0.37,9,��쐼,11,5
2014/3/8,17:00:00,10,�쐼,5.6,-3.5,55,0,0.15,12,��,8.3,24
2014/3/8,18:00:00,11,���쐼,4.5,-5,64.4,0,0.01,9,��쐼,7.5,2
2014/3/8,19:00:00,11,���쐼,3,-5.4,57.9,0,0,4,��,7,8
2014/3/8,20:00:00,10,�쐼,2.1,-6.1,58.8,0,0,11,���쐼,7.5,2
2014/3/8,21:00:00,10,�쐼,1.1,-9.9,68.3,0,0,8,��,3,27
2014/3/8,22:00:00,10,�쐼,1.5,-12.1,80.3,0,0,10,�쐼,2.1,39
2014/3/8,23:00:00,10,�쐼,1,-13.5,80.5,0,0,8,��,2.9,48
2014/3/8,0:00:00,12,��,1,-14,89.1,0,0,8,��,2.5,41
2014/3/9,1:00:00,10,�쐼,1.3,-14.5,85.8,0,0,7,��쓌,3.1,34
2014/3/9,2:00:00,10,�쐼,2.5,-11,80.2,0,0,10,�쐼,3.7,48
2014/3/9,3:00:00,10,�쐼,3.5,-7.1,67.3,0,0,12,��,7,49
2014/3/9,4:00:00,10,�쐼,1.9,-10.2,71.4,0,0,11,���쐼,5.5,7
2014/3/9,5:00:00,10,�쐼,1.2,-16,86.2,0,0,9,��쐼,3.5,15
2014/3/9,6:00:00,12,��,1.4,-16.7,87,0,0.01,13,���k��,3.2,31
2014/3/9,7:00:00,12,��,2.5,-14.5,83.3,0,0.1,12,��,4.3,36
2014/3/9,8:00:00,11,���쐼,1.1,-9.1,76.9,0,0.31,12,��,3.6,16
2014/3/9,9:00:00,11,���쐼,1.5,-1.6,46.7,0,0.53,11,���쐼,3.5,31
2014/3/9,10:00:00,1,�k�k��,0.4,1,40.9,0,0.61,9,��쐼,4,3
2014/3/9,11:00:00,16,�k,1.6,1.6,31.3,0,0.78,15,�k�k��,4.8,37
2014/3/9,12:00:00,5,���쓌,3.2,1.7,36.4,0,0.82,6,�쓌,5.1,41
2014/3/9,13:00:00,6,�쓌,3.8,0.7,37.5,0,0.79,6,�쓌,5.8,57
2014/3/9,14:00:00,6,�쓌,3.2,1.6,43.5,0,0.69,5,���쓌,6.5,4
2014/3/9,15:00:00,6,�쓌,2.8,1.7,40,0,0.52,6,�쓌,5.2,14
2014/3/9,16:00:00,6,�쓌,2.2,1.4,44.5,0,0.33,6,�쓌,4.7,24
2014/3/9,17:00:00,10,�쐼,4.5,-0.9,62,0,0.12,9,��쐼,7.4,26
2014/3/9,18:00:00,10,�쐼,2.6,-1.8,59.2,0,0.01,10,�쐼,6.4,3
2014/3/9,19:00:00,10,�쐼,2.4,-1.7,60,0,0,9,��쐼,5.2,1
2014/3/9,20:00:00,9,��쐼,2.5,-1.2,68.5,0,0,9,��쐼,4.2,54
2014/3/9,21:00:00,9,��쐼,2.5,-2,84.2,0,0,10,�쐼,7.2,35
2014/3/9,22:00:00,6,�쓌,1.3,-2.3,93.8,0,0,9,��쐼,3.6,2
2014/3/9,23:00:00,6,�쓌,3.4,-1.9,95.8,0,0,7,��쓌,6.8,42
2014/3/9,0:00:00,8,��,6.2,-0.6,97.1,0,0,8,��,11.7,57
2014/3/10,1:00:00,11,���쐼,4.4,-3.2,97.8,0,0,8,��,14.7,6
2014/3/10,2:00:00,10,�쐼,4.3,-4,94.6,0,0,12,��,7.9,18
2014/3/10,3:00:00,10,�쐼,1.7,-8.4,94,0,0,12,��,5.5,2
2014/3/10,4:00:00,6,�쓌,2,-9,93.6,0,0,6,�쓌,3.3,1
2014/3/10,5:00:00,9,��쐼,2.9,-7.3,96.7,0,0,12,��,4.7,20
2014/3/10,6:00:00,2,�k��,2.5,-7.9,97.5,0,0.01,4,��,3.7,48
2014/3/10,7:00:00,13,���k��,2.2,-9.7,94.5,0,0.06,16,�k,3.7,3
2014/3/10,8:00:00,8,�É�,0,-5.8,98.4,0,0.23,12,��,2.6,5
2014/3/10,9:00:00,10,�쐼,0.6,-3.8,98.3,0.5,0.46,13,���k��,2.5,42
2014/3/10,10:00:00,12,��,1.1,-1.4,73.8,0.5,0.67,7,��쓌,3.3,9
2014/3/10,11:00:00,13,���k��,2.5,-0.7,59.5,3,0.8,13,���k��,4.3,55
2014/3/10,12:00:00,14,�k��,3.4,0.2,48.8,0.5,0.86,15,�k�k��,6,40
2014/3/10,13:00:00,14,�k��,1.6,0.3,47.9,0,0.79,12,��,5.2,28
2014/3/10,14:00:00,13,���k��,3,0.4,47.3,0,0.62,7,��쓌,5.6,50
2014/3/10,15:00:00,4,��,2.8,0.5,67,0,0.6,11,���쐼,6,3
2014/3/10,16:00:00,2,�k��,2.8,-0.8,72.9,0,0.28,3,���k��,6.5,14
2014/3/10,17:00:00,15,�k�k��,2.5,-1.4,73.3,0,0.07,2,�k��,6.5,12
2014/3/10,18:00:00,1,�k�k��,2.4,-2.3,82,0,0.01,12,��,7.6,11
2014/3/10,19:00:00,1,�k�k��,5.1,-3,89.3,0,0,15,�k�k��,11,41
2014/3/10,20:00:00,16,�k,2.8,-3.5,80.7,0,0,1,�k�k��,6.1,29
2014/3/10,21:00:00,13,���k��,1.8,-6.5,83.7,0,0,11,���쐼,4,16
2014/3/10,22:00:00,14,�k��,1.9,-4.4,67.3,0,0,12,��,5.2,58
2014/3/10,23:00:00,13,���k��,1.8,-5.7,72.2,0,0,14,�k��,3.4,15
2014/3/10,0:00:00,13,���k��,2.8,-7,66.9,0,0,12,��,3.9,56
2014/3/11,1:00:00,13,���k��,2.9,-7.4,69.4,0,0,2,�k��,4.7,47
2014/3/11,2:00:00,4,��,3.2,-11.2,71,0,0,3,���k��,5.7,15
2014/3/11,3:00:00,13,���k��,2.7,-8.1,61.6,0,0,16,�k,5.7,8
2014/3/11,4:00:00,4,��,3.8,-8.8,76,0,0,10,�쐼,5.4,59
2014/3/11,5:00:00,11,���쐼,3.2,-8.4,63.2,0,0,11,���쐼,7.2,15
2014/3/11,6:00:00,9,��쐼,1.9,-11.9,73.8,0,0.01,15,�k�k��,6,4
2014/3/11,7:00:00,10,�쐼,1.5,-14.2,75,0,0.11,10,�쐼,2.7,1
2014/3/11,8:00:00,2,�k��,3.2,-5.1,53.7,0,0.33,5,���쓌,5.6,38
2014/3/11,9:00:00,13,���k��,3.2,-3.5,46.9,0,0.51,14,�k��,8.4,32
2014/3/11,10:00:00,13,���k��,5,-1.3,34,0,0.7,6,�쓌,8.3,46
2014/3/11,11:00:00,13,���k��,4.5,-0.4,28.3,0,0.78,13,���k��,9,20
2014/3/11,12:00:00,14,�k��,4,1.1,26.8,0,0.83,16,�k,8.2,51
2014/3/11,13:00:00,14,�k��,3.5,1.7,32.6,0,0.82,14,�k��,9.2,26
2014/3/11,14:00:00,14,�k��,4.9,1.7,23.9,0,0.73,13,���k��,8.7,57
2014/3/11,15:00:00,4,��,1.6,0.6,46.3,0,0.45,15,�k�k��,7.9,0
2014/3/11,16:00:00,7,��쓌,2.2,-0.2,46.7,0,0.33,8,��,5.8,33
2014/3/11,17:00:00,8,��,2.1,-1.3,67.1,0,0.1,8,��,3.4,20
2014/3/11,18:00:00,13,���k��,1.1,-4.8,76.1,0,0.01,10,�쐼,2.8,26
2014/3/11,19:00:00,14,�k��,0.8,-3.7,64,0,0,16,�k,2.8,5
2014/3/11,20:00:00,12,��,1.4,-5.6,76.7,0,0,12,��,2.2,41
2014/3/11,21:00:00,1,�k�k��,0.7,-4.4,67.6,0,0,6,�쓌,2.5,56
2014/3/11,22:00:00,12,��,0.9,-7.7,76.3,0,0,14,�k��,1.4,32
2014/3/11,23:00:00,10,�쐼,2.1,-7.6,74.3,0,0,2,�k��,3,42
2014/3/11,0:00:00,13,���k��,2.3,-6.2,70.5,0,0,2,�k��,3.1,59
2014/3/12,1:00:00,13,���k��,1.6,-7,74.3,0,0,13,���k��,4.2,20
2014/3/12,2:00:00,12,��,2.8,-7.2,78.3,0,0,10,�쐼,5.1,43
2014/3/12,3:00:00,11,���쐼,2.9,-7.8,83,0,0,16,�k,4.6,32
2014/3/12,4:00:00,11,���쐼,3.3,-7.5,82.9,0,0,2,�k��,5,46
2014/3/12,5:00:00,12,��,2.9,-7.8,83.5,0,0,13,���k��,5.2,51
2014/3/12,6:00:00,9,��쐼,2.4,-9.1,85.7,0,0.01,14,�k��,4,11
2014/3/12,7:00:00,9,��쐼,3,-7.8,79.8,0,0.12,8,��,4.8,59
2014/3/12,8:00:00,11,���쐼,1.2,-5.6,70.3,0,0.33,1,�k�k��,5.1,9
2014/3/12,9:00:00,11,���쐼,1.1,-3.1,64,0,0.55,11,���쐼,2.6,23
2014/3/12,10:00:00,6,�쓌,1.4,-0.9,53.8,0,0.7,6,�쓌,3.6,58
2014/3/12,11:00:00,5,���쓌,2.7,-0.9,60.3,0,0.8,6,�쓌,4.4,48
2014/3/12,12:00:00,5,���쓌,3.8,-1,64.6,0,0.84,4,��,5.3,59
2014/3/12,13:00:00,6,�쓌,3.4,-1.3,64.4,0,0.81,6,�쓌,5.4,51
2014/3/12,14:00:00,7,��쓌,3.3,-1.2,67.9,0,0.71,6,�쓌,6.1,15
2014/3/12,15:00:00,7,��쓌,3.1,-1.1,71.9,0,0.51,6,�쓌,5.8,18
2014/3/12,16:00:00,7,��쓌,2.8,-1.2,76.9,0,0.27,8,��,5.9,46
2014/3/12,17:00:00,7,��쓌,2.8,-1.2,79.9,0,0.08,8,��,5.8,36
2014/3/12,18:00:00,8,��,1.9,-1.5,80.9,0,0.01,8,��,5.5,5
2014/3/12,19:00:00,8,��,1.9,-1.9,79.8,0,0,8,��,4.5,20
2014/3/12,20:00:00,8,��,1.7,-1.9,78.2,0,0,7,��쓌,3.4,21
2014/3/12,21:00:00,7,��쓌,2.5,-1.5,81.7,0,0,7,��쓌,4.3,57
2014/3/12,22:00:00,7,��쓌,2.2,-1.3,85.9,0,0,7,��쓌,4.8,40
2014/3/12,23:00:00,7,��쓌,3.5,-1.2,82.7,0,0,6,�쓌,6.6,26
2014/3/12,0:00:00,6,�쓌,3.2,-1.2,80.2,0,0,7,��쓌,7.1,11
2014/3/13,1:00:00,5,���쓌,3,-1.4,83.9,0,0,6,�쓌,5.4,23
2014/3/13,2:00:00,5,���쓌,4.4,-1.4,86.2,0,0,5,���쓌,6.3,50
2014/3/13,3:00:00,4,��,3.2,-1.9,94.9,0,0,4,��,6.5,8
2014/3/13,4:00:00,4,��,3.7,-1.9,97.1,0,0,4,��,6.5,18
2014/3/13,5:00:00,3,���k��,3.1,-2.4,97.7,0,0,4,��,6.3,17
2014/3/13,6:00:00,4,��,5.8,-2.3,97.7,0,0.01,4,��,8.2,56
2014/3/13,7:00:00,2,�k��,2.9,-2.5,96.8,0,0.04,4,��,7.4,1
2014/3/13,8:00:00,3,���k��,4.3,-1.5,97.4,0,0.08,4,��,6.9,59
2014/3/13,9:00:00,4,��,4.8,-1.5,96.2,0,0.12,3,���k��,8.1,59
2014/3/13,10:00:00,4,��,6.3,-1.8,94.1,0,0.19,4,��,9.9,58
2014/3/13,11:00:00,3,���k��,5.2,-1.8,93,0,0.22,4,��,9,1
2014/3/13,12:00:00,3,���k��,5.5,-2.1,90.5,0.5,0.28,3,���k��,8.6,50
2014/3/13,13:00:00,3,���k��,5.7,-2.2,88.9,0,0.31,3,���k��,8.3,57
2014/3/13,14:00:00,3,���k��,5.4,-2.3,91.8,1,0.24,3,���k��,10.1,45
2014/3/13,15:00:00,3,���k��,4.6,-2.2,91.9,0.5,0.19,3,���k��,8.7,21
2014/3/13,16:00:00,3,���k��,4.8,-2.5,92.7,0.5,0.1,3,���k��,7.9,49
2014/3/13,17:00:00,3,���k��,4.3,-2.4,92.5,0,0.04,2,�k��,8.5,17
2014/3/13,18:00:00,1,�k�k��,3.3,-2.5,93.3,0,0.01,2,�k��,7,20
2014/3/13,19:00:00,16,�k,2.5,-2.6,94.1,0,0,1,�k�k��,4.9,2
2014/3/13,20:00:00,14,�k��,2.3,-2.9,95.9,0,0,15,�k�k��,4.5,7
2014/3/13,21:00:00,14,�k��,3.1,-3,96.4,0,0,15,�k�k��,5.8,16
2014/3/13,22:00:00,14,�k��,4.5,-3,95.9,0,0,12,��,8.4,59
2014/3/13,23:00:00,14,�k��,5.3,-3.1,95.3,0,0,14,�k��,9.1,44
2014/3/13,0:00:00,14,�k��,6.3,-3.3,95.3,0,0,14,�k��,11.5,35
2014/3/14,1:00:00,14,�k��,6.8,-3.3,95,0,0,14,�k��,11.6,57
2014/3/14,2:00:00,14,�k��,7.3,-3.3,95.2,0,0,15,�k�k��,11.8,55
2014/3/14,3:00:00,13,���k��,8,-3.1,94.6,0,0,4,��,12.3,57
2014/3/14,4:00:00,14,�k��,6.8,-3,96.1,0,0,12,��,13.3,9
2014/3/14,5:00:00,14,�k��,7,-2.7,94.7,0,0,14,�k��,13.3,19
2014/3/14,6:00:00,14,�k��,5.1,-2.3,94.1,0,0.01,13,���k��,12.1,3
2014/3/14,7:00:00,14,�k��,4.8,-1.5,87.5,0,0.09,14,�k��,11,47
2014/3/14,8:00:00,14,�k��,7,-0.7,76.4,0,0.23,15,�k�k��,11.7,56
2014/3/14,9:00:00,14,�k��,6.2,0.8,67.1,0,0.52,15,�k�k��,11.6,16
2014/3/14,10:00:00,14,�k��,5.6,2.2,52.6,0,0.68,15,�k�k��,12.2,1
2014/3/14,11:00:00,14,�k��,3.7,3.1,51.1,3.5,0.75,14,�k��,12.3,17
2014/3/14,12:00:00,14,�k��,3.6,3.1,49.8,3,0.8,15,�k�k��,7.3,12
2014/3/14,13:00:00,13,���k��,4.3,3.9,47.1,0,0.78,10,�쐼,7.7,54
2014/3/14,14:00:00,14,�k��,2.8,3.7,53.6,0,0.49,15,�k�k��,7.4,3
2014/3/14,15:00:00,1,�k�k��,3.5,3.6,53.8,0,0.26,2,�k��,5.5,45
2014/3/14,16:00:00,1,�k�k��,2.7,2.7,60.5,0,0.14,1,�k�k��,6.6,25
2014/3/14,17:00:00,2,�k��,2.2,2.3,60.1,0,0.06,1,�k�k��,4.2,1
2014/3/14,18:00:00,1,�k�k��,4.1,1.7,57.4,0,0.01,1,�k�k��,6.3,53
2014/3/14,19:00:00,1,�k�k��,3.3,0.9,61.5,0,0,1,�k�k��,5.5,33
2014/3/14,20:00:00,16,�k,1.4,0.2,69.7,0,0,1,�k�k��,4,14
2014/3/14,21:00:00,15,�k�k��,2.5,-0.6,65.8,0,0,16,�k,5.3,16
2014/3/14,22:00:00,15,�k�k��,4.3,-1.2,59.2,0,0,13,���k��,7.4,54
2014/3/14,23:00:00,15,�k�k��,3.5,-1.9,58.9,0,0,15,�k�k��,7.7,40
2014/3/14,0:00:00,14,�k��,3.7,-2.2,57.5,0,0,14,�k��,7.6,48
2014/3/15,1:00:00,15,�k�k��,1.8,-2.5,56.8,0,0,13,���k��,8.4,0
2014/3/15,2:00:00,14,�k��,3.8,-2.3,54.4,0,0,15,�k�k��,7.5,40
2014/3/15,3:00:00,15,�k�k��,4.5,-2.7,56.8,0,0,12,��,9.5,54
2014/3/15,4:00:00,14,�k��,3.9,-2.9,56.9,0,0,14,�k��,7.9,1
2014/3/15,5:00:00,14,�k��,4.6,-3,56.8,0,0,15,�k�k��,9.6,24
2014/3/15,6:00:00,13,���k��,4.1,-3.4,57.6,0,0.01,10,�쐼,9.1,19
2014/3/15,7:00:00,14,�k��,3.8,-2.7,52.1,0,0.14,10,�쐼,8.1,21
2014/3/15,8:00:00,13,���k��,3.7,-1.5,44.9,0,0.39,12,��,9.8,21
2014/3/15,9:00:00,15,�k�k��,3.8,-0.6,43.3,0,0.57,9,��쐼,9.8,3
2014/3/15,10:00:00,14,�k��,4.3,0.4,36.2,0,0.75,16,�k,7.9,39
2014/3/15,11:00:00,15,�k�k��,1.5,1.1,37.3,0,0.85,15,�k�k��,6.6,1
2014/3/15,12:00:00,8,��,3.9,0.5,45.6,0,0.87,9,��쐼,8.2,37
2014/3/15,13:00:00,7,��쓌,4.1,0.3,47.1,0,0.83,7,��쓌,7,48
2014/3/15,14:00:00,6,�쓌,3.3,0.6,59.5,0,0.72,6,�쓌,7,17
2014/3/15,15:00:00,7,��쓌,2.1,1.1,61.1,0,0.46,6,�쓌,5.2,3
2014/3/15,16:00:00,8,��,2.5,1.7,49.6,0,0.39,8,��,4.2,53
2014/3/15,17:00:00,10,�쐼,4.8,0.6,63,0,0.18,10,�쐼,6.8,28
2014/3/15,18:00:00,9,��쐼,2.8,-0.4,62.5,0,0.01,11,���쐼,6.5,9
2014/3/15,19:00:00,9,��쐼,3,-0.6,61.7,0,0,9,��쐼,5.5,5
2014/3/15,20:00:00,10,�쐼,2.3,-1.9,68,0,0,9,��쐼,5.6,22
2014/3/15,21:00:00,9,��쐼,1.5,-4.5,71.6,0,0,9,��쐼,3.2,21
2014/3/15,22:00:00,3,���k��,0.9,-7.2,81.5,0,0,1,�k�k��,4.6,17
2014/3/15,23:00:00,12,��,1.5,-11.3,85.9,0,0,12,��,3,8
2014/3/15,0:00:00,11,���쐼,2.5,-10.2,91.5,0,0,11,���쐼,3.2,52
2014/3/16,1:00:00,12,��,1.1,-11,94,0,0,13,���k��,3,23
2014/3/16,2:00:00,12,��,2.6,-11.5,93.2,0,0,11,���쐼,3.9,48
2014/3/16,3:00:00,12,��,1.4,-11.5,92.9,0,0,12,��,2.7,4
2014/3/16,4:00:00,12,��,2.6,-10.6,94.4,0,0,12,��,4.2,42
2014/3/16,5:00:00,12,��,2.3,-11.8,92.2,0,0,12,��,3.5,20
2014/3/16,6:00:00,12,��,1.5,-12.5,92.6,0,0.01,12,��,3.4,4
2014/3/16,7:00:00,12,��,2.3,-10.5,95.1,0,0.07,12,��,2.8,59
2014/3/16,8:00:00,12,��,0.9,-7.7,95.7,0,0.17,12,��,2.4,0
2014/3/16,9:00:00,2,�k��,0.4,-4.3,81.8,0,0.23,14,�k��,3.3,44
2014/3/16,10:00:00,2,�k��,1.8,-0.4,80,0,0.38,1,�k�k��,2.5,51
2014/3/16,11:00:00,7,��쓌,1.8,0.9,89.2,0,0.48,7,��쓌,4.2,48
2014/3/16,12:00:00,5,���쓌,2.5,0.6,90.1,0,0.37,6,�쓌,3.6,25
2014/3/16,13:00:00,4,��,2.9,0.5,95.2,0,0.29,4,��,4.3,19
2014/3/16,14:00:00,3,���k��,3.2,0.1,96,0,0.22,2,�k��,4.4,49
2014/3/16,15:00:00,3,���k��,2.7,0.4,95.5,0,0.25,3,���k��,4.5,28
2014/3/16,16:00:00,3,���k��,2.6,-0.1,95.9,0,0.14,2,�k��,4.7,28
2014/3/16,17:00:00,2,�k��,2.1,-0.3,96.6,0,0.07,2,�k��,3.8,27
2014/3/16,18:00:00,2,�k��,1.4,-0.5,97,0,0.01,2,�k��,3.1,7
2014/3/16,19:00:00,5,���쓌,0.5,-0.5,98.1,0,0,2,�k��,1.7,1
2014/3/16,20:00:00,11,���쐼,1.1,-4,97.3,0,0,9,��쐼,2,22
2014/3/16,21:00:00,11,���쐼,1.6,-2.7,100,0,0,12,��,2.9,38
2014/3/16,22:00:00,11,�É�,0,-5,97.4,0,0,6,�쓌,3.2,38
2014/3/16,23:00:00,12,��,1.5,-9.4,94.6,0,0,11,���쐼,25.9,25
2014/3/16,0:00:00,11,���쐼,2.6,-8.7,94.2,0,0,12,��,3.1,54
2014/3/17,1:00:00,12,��,3.7,-4.8,98,0,0,14,�k��,5.1,56
2014/3/17,2:00:00,11,���쐼,3.1,-6.9,96,0,0,12,��,5.4,35
2014/3/17,3:00:00,11,���쐼,3.2,-6.1,95.1,0,0,9,��쐼,4.3,55
2014/3/17,4:00:00,12,��,3.5,-3.6,90.3,0,0,8,��,6.1,9
2014/3/17,5:00:00,12,��,3.9,-4.6,81.8,0,0,2,�k��,5.8,39
2014/3/17,6:00:00,11,���쐼,3.7,-5,77.2,0,0.01,10,�쐼,5.4,34
2014/3/17,7:00:00,12,��,3.2,-4.2,76.9,0,0.15,11,���쐼,4.5,32
2014/3/17,8:00:00,11,���쐼,2.5,-2.7,74,0,0.36,9,��쐼,4.9,11
2014/3/17,9:00:00,11,���쐼,1.7,0.8,61.7,0,0.56,11,���쐼,3.6,18
2014/3/17,10:00:00,11,���쐼,2,4,43.9,0,0.73,10,�쐼,4.6,21
2014/3/17,11:00:00,12,��,3.8,4.1,41.8,0,0.83,14,�k��,6.3,48
2014/3/17,12:00:00,14,�k��,3.2,5.2,36.8,0,0.87,15,�k�k��,6.6,37
2014/3/17,13:00:00,15,�k�k��,3.7,5.1,39.8,0,0.84,15,�k�k��,7.4,20
2014/3/17,14:00:00,15,�k�k��,3.3,4.8,41.6,0,0.74,15,�k�k��,7.6,21
2014/3/17,15:00:00,15,�k�k��,3.4,5.1,42.5,0,0.6,15,�k�k��,7.1,14
2014/3/17,16:00:00,15,�k�k��,2,5.1,43.9,0,0.4,14,�k��,6.4,28
2014/3/17,17:00:00,15,�k�k��,1.4,3.9,48.4,0,0.18,14,�k��,4.2,14
2014/3/17,18:00:00,11,���쐼,2.2,0.6,69.9,0,0.02,8,��,3.5,32
2014/3/17,19:00:00,12,��,1.1,-2.8,78.7,0,0,8,��,2.2,20
2014/3/17,20:00:00,12,��,1.4,-2.9,82.4,0,0,12,��,3.2,41